306  
ASUS43 KDTX 192110  
RWRMI  
MICHIGAN HOURLY REGIONAL WEATHER ROUNDUP  
NATIONAL WEATHER SERVICE DETROIT/PONTIAC MI  
400 PM EST TUE NOV 19 2019  
 
NOTE: "FAIR" INDICATES FEW OR NO CLOUDS BELOW 12,000 FEET WITH NO  
SIGNIFICANT WEATHER AND/OR TO VISIBILITY
.  
 
MIZ047>049-052>055-059>063-066>070-074>076-081>083-192200-  
SOUTHEAST LOWER MICHIGAN  
 
CITY SKY/WX TMP DP RH WIND PRES REMARKS
 
ADRIAN CLOUDY 41 32 70 CALM 29.85R  
ALMA CLOUDY 40 37 88 CALM 29.85R FOG  
ANN ARBOR CLOUDY 39 34 82 CALM 29.84R HAZE  
BAD AXE CLOUDY 37 33 85 CALM 29.83R FOG  
CARO CLOUDY 41 36 82 W3 29.84R HAZE  
DETROIT CITY CLOUDY 41 35 79 W3 29.85R  
DETROIT CLOUDY 41 36 82 W7 29.85R HAZE  
FLINT CLOUDY 40 36 86 S5 29.85R  
GROSSE ILE CLOUDY 38 37 94 S5 29.85R FOG WCI 35  
HILLSDALE CLOUDY 39 32 75 CALM 29.82R  
HOWELL CLOUDY 38 37 96 CALM 29.84R FOG  
 
CITY SKY/WX TMP DP RH WIND PRES REMARKS
 
JACKSON CLOUDY 40 31 70 SW5 29.84R  
LAMBERTVILLE CLOUDY 44 35 72 CALM 29.85R HAZE  
LANSING CLOUDY 41 33 73 NW3 29.85R  
LAPEER CLOUDY 39 34 82 W3 29.85R  
MASON CLOUDY 41 34 77 W3 29.84R  
MONROE CLOUDY 41 37 87 NW5 29.84R FOG  
MT. CLEMENS CLOUDY 38 38 100 CALM 29.83R FOG  
PONTIAC CLOUDY 38 34 85 W6 29.83R WCI 33  
PORT HOPE N/A 38 30 73 SW3 29.83R  
PORT HURON CLOUDY 37 36 93 CALM 29.85R FOG  
TRI CITIES CLOUDY 39 34 82 CALM 29.85R HAZE  
MIDLAND CLOUDY 38 34 84 CALM 29.84R FOG  
TROY CLOUDY 41 37 84 CALM 29.86R  
SAGINAW HB CLOUDY 37 34 87 W3 29.85R HAZE  

 
MIZ043>046-050>051-056>058-064>065-071>073-077>080-192200-  
SOUTHWEST LOWER MICHIGAN  
 
CITY SKY/WX TMP DP RH WIND PRES REMARKS
 
BENTON HARBOR CLOUDY 41 32 70 NW5 29.85  
BIG RAPIDS CLOUDY 39 36 87 NW3 29.83R  
COLDWATER FAIR 41 27 58 CALM 29.84R  
FREMONT CLOUDY 40 40 100 CALM 29.84R  
HOLLAND CLOUDY 41 35 79 SW6 29.86R  
GRAND RAPIDS CLOUDY 41 32 70 CALM 29.84R  
IONIA CLOUDY 42 33 70 W3 29.84R  
KALAMAZOO CLOUDY 40 30 67 CALM 29.85R  
LUDINGTON CLOUDY 37 36 94 CALM 29.85R FOG  
MARSHALL CLOUDY 41 32 69 SW3 29.84R  
MOUNT PLEASANT CLOUDY 39 36 87 CALM 29.83R FOG  
MUSKEGON CLOUDY 41 33 73 W7 29.86R  
SOUTH HAVEN CLOUDY 41 34 76 CALM 29.85R  

 
MIZ016>042-192200-  
NORTHERN LOWER MICHIGAN  
 
CITY SKY/WX TMP DP RH WIND PRES REMARKS
 
ALPENA CLOUDY 38 33 82 SW3 29.83R  
BEAVER ISLAND CLOUDY 40 37 86 W3 29.82R  
BELLAIRE CLOUDY 39 32 75 CALM 29.84R  
CADILLAC LGT RAIN 35 32 90 CALM 29.81R  
CHARLEVOIX LGT RAIN 38 34 85 S7 29.86R WCI 32  
FRANKFORT CLOUDY 37 33 85 CALM 29.85R  
GAYLORD CLOUDY 36 30 79 W6 29.81R WCI 31  
GRAYLING CLOUDY 37 29 74 W3 29.82R  
HARBOR SPRINGS CLOUDY 38 38 99 SW8 29.82R WCI 32  
HOUGHTON LAKE CLOUDY 36 31 82 CALM 29.83R  
MANISTEE CLOUDY 36 35 96 CALM 29.85R FOG  
OSCODA CLOUDY 38 33 80 CALM 29.84R  
PELLSTON CLOUDY 38 35 89 S3 29.83R  
ROGERS CITY CLOUDY 38 35 89 CALM 29.84R  
TRAVERSE CITY CLOUDY 41 32 70 W6 29.83R  

 
MIZ007>008-015-192200-  
EASTERN UPPER MICHIGAN  
 
CITY SKY/WX TMP DP RH WIND PRES REMARKS
 
KINROSS CLOUDY 38 36 92 CALM 29.82R  
MACKINAC ISLAN CLOUDY 41 40 97 W3 29.81R  
NEWBERRY CLOUDY 39 37 91 CALM 29.81R  
S. S. MARIE CLOUDY 39 36 89 CALM 29.81R FOG  
MUNISING N/A 40 35 83 NE6 29.82R  

 
MIZ004>006-011>014-085-192200-  
CENTRAL UPPER MICHIGAN  
 
CITY SKY/WX TMP DP RH WIND PRES REMARKS
 
MANISTIQUE CLOUDY 41 37 84 CALM 29.82R  
ESCANABA CLOUDY 39 33 79 S3 29.83R  
MENOMINEE CLOUDY 38 29 70 CALM 29.85R  
SAWYER-GWINN CLOUDY 37 32 81 SW3 29.79R  

 
MIZ001>003-009>011-084-192200-  
WESTERN UPPER MICHIGAN  
 
CITY SKY/WX TMP DP RH WIND PRES REMARKS
 
IRON MOUNTAIN CLOUDY 40 28 62 S6 29.79R  
HOUGHTON CLOUDY 36 28 73 SW7 29.79R WCI 30  
COPPER HARBOR N/A 39 32 76 N3 29.81R  
IRONWOOD CLOUDY 33 29 85 SW3 29.81R  

 
 
ABBREVIATIONS USED IN REMARKS  
TC - TEMPERATURE IN CELSIUS  
WCI - WIND CHILL INDEX  
HX - HEAT INDEX  
VSB - VISIBILITY  
 
 
 
CLICK HERE TO GO TO PREVIOUS BULLETINS.

The Nexlab MI Page Main Text Page